Estación Meteorológica Peña el Pijo (Robertgarden) [ 09/29/20 20:37:45 CEST ]

Fecha Hora Presion(HPa) Temp (°C) Humedad % Rocio (°C) Viento ( m/s) Direccion Lluvia 1Hora(mm) Lluvia 24H(mm) LLuvia Total(mm)
2020-Mar-23 01:09:14 1001.300 - - - - N     39.88
2020-Mar-23 02:09:50 1001.400 - - - - N     39.88
2020-Mar-23 03:09:29 1001.200 - - - - N     39.88
2020-Mar-23 04:09:25 1000.800 - - - - N     39.88
2020-Mar-23 05:13:20 1001.100 - - - - N     39.88
2020-Mar-23 06:10:48 1001.400 - - - - N     39.88
2020-Mar-23 07:09:25 1001.700 - - - - N     39.88
2020-Mar-23 08:09:16 1002.200 - - - - N     39.88
2020-Mar-23 09:09:16 1002.500 - - - - N     39.88
2020-Mar-23 10:08:50 1003.000 - - - - N     39.88
2020-Mar-23 11:09:03 1003.400 - - - - N     39.88
2020-Mar-23 12:09:47 1003.400 - - - - N     39.88
2020-Mar-23 13:09:06 1002.900 - - - - N     39.88
2020-Mar-23 14:09:13 1002.400 - - - - N     39.88
2020-Mar-23 15:08:49 1002.100 - - - - N     39.88
2020-Mar-23 16:09:10 1001.300 - - - - N     39.88
2020-Mar-23 17:09:20 1001.600 - - - - N     39.88
2020-Mar-23 18:09:32 1001.800 - - - - N     39.88
2020-Mar-23 19:08:59 1002.300 - - - - N     39.88
2020-Mar-23 20:09:13 1002.600 - - - - N     39.88
2020-Mar-23 21:08:53 1003.100 - - - - N     39.88
2020-Mar-23 22:09:06 1003.300 - - - - N     39.88
2020-Mar-23 23:09:09 1003.400 - - - - N     39.88

Temperatura Máxima:    Temperatura Mínima:
Presión Máxima:1003.400 Hpa    Presión Mínima:1000.800 Hpa


Volver